K4FB Weather Reports


Display with metric or nautical units.
time (UTC)temp
F
wind
direction
speed
MPH
gust
MPH
rain 1hr
in
rain 24hr
in
rain mn
in
humidity
%
barometer
mb
20260510052507 75 123 1.0 3.0 0.00 0.00 0.00 84 1015.7
20260510052007 75 115 1.0 3.0 0.00 0.00 0.00 84 1015.6
20260510051521 76 76 0.0 2.0 0.00 0.00 0.00 84 1015.8
20260510051007 76 73 0.0 3.0 0.00 0.00 0.00 84 1015.8
20260510050504 76 78 0.0 4.0 0.00 0.00 0.00 84 1015.7
20260510050016 76 104 2.0 4.0 0.00 0.00 0.00 83 1015.7
20260510045510 76 133 0.0 2.0 0.00 0.00 0.00 82 1015.8
20260510045011 76 133 0.0 2.0 0.00 0.00 0.00 82 1015.8
20260510044514 76 133 0.0 2.0 0.00 0.00 0.00 82 1015.9
20260510043509 77 95 0.0 2.0 0.00 0.00 0.00 81 1015.8
20260510043024 77 95 0.0 2.0 0.00 0.00 0.00 81 1016.0
20260510042503 77 93 0.0 2.0 0.00 0.00 0.00 81 1016.0
20260510042004 77 93 0.0 2.0 0.00 0.00 0.00 80 1016.0
20260510041519 78 90 0.0 3.0 0.00 0.00 0.00 80 1016.1
20260510041005 78 88 1.0 4.0 0.00 0.00 0.00 81 1015.9
20260510040509 78 65 1.0 4.0 0.00 0.00 0.00 80 1016.1
20260510040020 78 93 1.0 4.0 0.00 0.00 0.00 79 1016.0
20260510035507 78 79 1.0 3.0 0.00 0.00 0.00 79 1016.0
20260510035004 78 93 0.0 2.0 0.00 0.00 0.00 79 1016.0
20260510034524 79 34 0.0 2.0 0.00 0.00 0.00 78 1015.9
20260510034009 79 34 0.0 3.0 0.00 0.00 0.00 78 1016.0
20260510033511 79 34 0.0 3.0 0.00 0.00 0.00 77 1016.0
20260510033020 79 352 0.0 4.0 0.00 0.00 0.00 77 1016.0
20260510032507 79 13 2.0 4.0 0.00 0.00 0.00 77 1015.8
20260510032012 79 352 0.0 4.0 0.00 0.00 0.00 77 1016.2
20260510031004 80 54 1.0 5.0 0.00 0.00 0.00 76 1016.0
20260510030507 80 24 3.0 6.0 0.00 0.00 0.00 76 1016.0
20260510030032 80 28 3.0 6.0 0.00 0.00 0.00 76 1015.8
20260510025509 80 26 1.0 7.0 0.00 0.00 0.00 75 1015.9
20260510025009 80 27 2.0 7.0 0.00 0.00 0.00 75 1015.9
20260510024526 81 12 1.0 7.0 0.00 0.00 0.00 75 1015.8
20260510024005 81 42 3.0 7.0 0.00 0.00 0.00 74 1015.7
20260510023512 81 41 1.0 4.0 0.00 0.00 0.00 73 1015.7
20260510023026 81 360 0.0 5.0 0.00 0.00 0.00 72 1015.6
20260510022511 81 350 2.0 5.0 0.00 0.00 0.00 71 1015.5
20260510022008 82 29 1.0 9.0 0.00 0.00 0.00 70 1015.6
20260510021528 82 13 4.0 9.0 0.00 0.00 0.00 70 1015.5
20260510021008 82 12 1.0 8.0 0.00 0.00 0.00 64 1015.5
20260510020503 82 9 3.0 8.0 0.00 0.00 0.00 67 1015.5
20260510020025 82 360 2.0 5.0 0.00 0.00 0.00 72 1015.6
20260510015505 82 296 2.0 5.0 0.00 0.00 0.00 72 1015.6
20260510015006 82 333 3.0 6.0 0.00 0.00 0.00 73 1015.4
20260510014010 82 293 1.0 6.0 0.00 0.00 0.00 72 1015.2
20260510013512 82 284 2.0 6.0 0.00 0.00 0.00 72 1015.1
20260510013024 82 300 1.0 5.0 0.00 0.00 0.00 72 1015.0
20260510012509 82 323 2.0 8.0 0.00 0.00 0.00 71 1014.8
20260510012008 82 257 2.0 8.0 0.00 0.00 0.00 70 1014.6
20260510011525 82 248 1.0 7.0 0.00 0.00 0.00 70 1014.6
20260510011008 82 288 1.0 10.0 0.00 0.00 0.00 69 1014.6
20260510010507 83 247 2.0 10.0 0.00 0.00 0.00 68 1014.5
20260510010026 83 246 2.0 9.0 0.00 0.00 0.00 68 1014.4
20260510005512 83 297 4.0 9.0 0.00 0.00 0.00 66 1014.3
20260510004517 83 286 1.0 8.0 0.00 0.00 0.00 62 1014.1
20260510004004 83 337 4.0 10.0 0.00 0.00 0.00 61 1014.0
20260510003508 83 311 0.0 10.0 0.00 0.00 0.00 60 1014.0
20260510003013 83 264 3.0 10.0 0.00 0.00 0.00 60 1013.8
20260510002504 84 271 1.0 7.0 0.00 0.00 0.00 59 1013.7
20260510002003 84 255 3.0 9.0 0.00 0.00 0.00 59 1013.7
20260510001004 85 257 2.0 11.0 0.00 0.00 0.00 59 1013.5
20260510000504 85 308 5.0 11.0 0.00 0.00 0.00 57 1013.4
20260509235505 86 273 5.0 10.0 0.00 0.00 0.00 57 1013.4
20260509235004 86 275 5.0 9.0 0.00 0.00 0.00 57 1013.4
20260509234008 87 270 6.0 11.0 0.00 0.00 0.00 56 1013.4
20260509233504 87 248 3.0 9.0 0.00 0.00 0.00 55 1013.3
20260509233022 88 298 2.0 13.0 0.00 0.00 0.00 55 1013.2
20260509232513 88 260 4.0 13.0 0.00 0.00 0.00 55 1013.1
20260509232003 88 259 5.0 11.0 0.00 0.00 0.00 55 1013.2
20260509231505 89 236 5.0 11.0 0.00 0.00 0.00 54 1013.0
20260509231003 89 257 5.0 12.0 0.00 0.00 0.00 53 1012.9
20260509230503 90 208 4.0 12.0 0.00 0.00 0.00 51 1012.9
20260509230011 91 288 5.0 12.0 0.00 0.00 0.00 52 1012.9
20260509225504 92 254 7.0 14.0 0.00 0.00 0.00 48 1012.9
20260509225004 92 282 6.0 14.0 0.00 0.00 0.00 48 1012.8
20260509224507 93 259 3.0 15.0 0.00 0.00 0.00 48 1012.7
20260509224003 93 310 5.0 15.0 0.00 0.00 0.00 47 1012.5
20260509223506 93 247 7.0 15.0 0.00 0.00 0.00 47 1012.5
20260509222505 93 247 6.0 13.0 0.00 0.00 0.00 46 1012.5
20260509222005 94 236 8.0 14.0 0.00 0.00 0.00 44 1012.5
20260509221518 95 212 8.0 14.0 0.00 0.00 0.00 45 1012.5
20260509221015 95 246 7.0 13.0 0.00 0.00 0.00 45 1012.4
20260509220505 95 196 6.0 17.0 0.00 0.00 0.00 43 1012.4
20260509215504 95 232 10.0 14.0 0.00 0.00 0.00 43 1012.3
20260509215006 95 250 8.0 16.0 0.00 0.00 0.00 43 1012.3
20260509214005 94 203 10.0 17.0 0.00 0.00 0.00 45 1012.1
20260509213504 95 220 10.0 17.0 0.00 0.00 0.00 44 1012.0
20260509213011 95 244 7.0 19.0 0.00 0.00 0.00 45 1011.9
20260509212506 95 227 10.0 19.0 0.00 0.00 0.00 43 1011.9
20260509212010 97 236 8.0 18.0 0.00 0.00 0.00 43 1011.9
20260509211506 97 240 8.0 18.0 0.00 0.00 0.00 43 1011.8
20260509211003 97 221 8.0 18.0 0.00 0.00 0.00 42 1011.8
20260509210512 97 252 6.0 16.0 0.00 0.00 0.00 44 1011.7
20260509210023 97 252 9.0 19.0 0.00 0.00 0.00 43 1011.8
20260509205003 98 228 7.0 14.0 0.00 0.00 0.00 44 1011.8
20260509204508 98 296 7.0 14.0 0.00 0.00 0.00 46 1011.7
20260509204004 98 238 9.0 13.0 0.00 0.00 0.00 45 1011.7
20260509203503 97 236 6.0 15.0 0.00 0.00 0.00 47 1011.8
20260509202503 95 263 7.0 15.0 0.00 0.00 0.00 49 1011.8
20260509202006 94 272 6.0 15.0 0.00 0.00 0.00 49 1011.9
20260509201518 94 219 4.0 13.0 0.00 0.00 0.00 51 1012.0
20260509201007 94 239 9.0 13.0 0.00 0.00 0.00 48 1012.1
20260509200509 94 227 7.0 13.0 0.00 0.00 0.00 52 1012.3
20260509200011 94 234 8.0 17.0 0.00 0.00 0.00 49 1012.2
20260509195506 95 254 11.0 17.0 0.00 0.00 0.00 46 1012.3
20260509195008 97 215 6.0 15.0 0.00 0.00 0.00 46 1012.2
20260509194509 98 251 7.0 15.0 0.00 0.00 0.00 44 1012.3
20260509194007 98 244 8.0 14.0 0.00 0.00 0.00 45 1012.3
20260509193503 98 265 7.0 14.0 0.00 0.00 0.00 44 1012.3
20260509192507 98 247 9.0 15.0 0.00 0.00 0.00 46 1012.5
20260509192009 97 184 8.0 15.0 0.00 0.00 0.00 48 1012.7
20260509191006 96 225 6.0 15.0 0.00 0.00 0.00 46 1012.8
20260509190506 96 246 9.0 16.0 0.00 0.00 0.00 47 1012.9
20260509185507 95 218 9.0 15.0 0.00 0.00 0.00 47 1013.0
20260509185009 95 186 7.0 14.0 0.00 0.00 0.00 47 1013.1
20260509184529 95 194 6.0 13.0 0.00 0.00 0.00 47 1013.1
20260509184008 96 204 7.0 14.0 0.00 0.00 0.00 48 1013.3
20260509183016 98 188 4.0 16.0 0.00 0.00 0.00 41 1013.2
20260509182504 98 219 10.0 16.0 0.00 0.00 0.00 44 1013.3
20260509182007 97 176 6.0 15.0 0.00 0.00 0.00 47 1013.2
20260509181514 97 223 6.0 15.0 0.00 0.00 0.00 46 1013.4
20260509181007 98 237 6.0 15.0 0.00 0.00 0.00 44 1013.3
20260509180508 97 207 4.0 14.0 0.00 0.00 0.00 45 1013.4
20260509175505 97 197 6.0 16.0 0.00 0.00 0.00 46 1013.3
20260509174524 97 223 6.0 16.0 0.00 0.00 0.00 50 1013.5
20260509174005 96 192 5.0 16.0 0.00 0.00 0.00 47 1013.6
20260509173506 97 182 10.0 16.0 0.00 0.00 0.00 47 1013.7
20260509173024 96 191 7.0 17.0 0.00 0.00 0.00 51 1013.8
20260509172512 95 180 6.0 17.0 0.00 0.00 0.00 47 1013.8
20260509171520 94 209 7.0 14.0 0.00 0.00 0.00 52 1013.9
20260509171006 94 205 7.0 14.0 0.00 0.00 0.00 49 1014.0
20260509170504 94 209 8.0 13.0 0.00 0.00 0.00 51 1014.0
20260509165508 93 210 8.0 17.0 0.00 0.00 0.00 51 1014.0
20260509165008 93 211 6.0 17.0 0.00 0.00 0.00 52 1013.9
20260509164519 93 230 8.0 14.0 0.00 0.00 0.00 51 1014.1
20260509164009 93 163 5.0 16.0 0.00 0.00 0.00 49 1014.2
20260509163513 93 178 9.0 16.0 0.00 0.00 0.00 48 1014.2
20260509163011 94 212 8.0 14.0 0.00 0.00 0.00 50 1014.1
20260509162507 94 161 9.0 14.0 0.00 0.00 0.00 49 1014.1
20260509162008 95 213 7.0 14.0 0.00 0.00 0.00 49 1014.1
20260509161524 95 205 8.0 14.0 0.00 0.00 0.00 48 1014.2
20260509160507 94 214 6.0 15.0 0.00 0.00 0.00 51 1014.4
20260509155503 94 223 8.0 15.0 0.00 0.00 0.00 49 1014.4
20260509155006 94 181 7.0 15.0 0.00 0.00 0.00 48 1014.5
20260509154522 93 215 6.0 14.0 0.00 0.00 0.00 49 1014.4
20260509154004 93 198 5.0 13.0 0.00 0.00 0.00 51 1014.6
20260509153504 92 168 5.0 11.0 0.00 0.00 0.00 51 1014.7
20260509153011 92 192 3.0 9.0 0.00 0.00 0.00 55 1014.8
20260509152504 91 101 4.0 10.0 0.00 0.00 0.00 55 1014.8
20260509152004 91 187 5.0 10.0 0.00 0.00 0.00 53 1014.9
20260509151507 91 169 7.0 13.0 0.00 0.00 0.00 53 1014.9
20260509151003 90 194 6.0 13.0 0.00 0.00 0.00 57 1015.0
20260509150504 90 156 4.0 11.0 0.00 0.00 0.00 59 1015.0
20260509150011 89 207 6.0 11.0 0.00 0.00 0.00 57 1015.0
20260509145503 89 176 4.0 11.0 0.00 0.00 0.00 62 1015.0
20260509145002 89 204 6.0 9.0 0.00 0.00 0.00 63 1015.0
20260509144519 88 213 4.0 9.0 0.00 0.00 0.00 61 1015.0
20260509144008 87 190 2.0 8.0 0.00 0.00 0.00 64 1015.0
20260509143504 86 189 4.0 8.0 0.00 0.00 0.00 66 1015.1
20260509143006 86 196 1.0 5.0 0.00 0.00 0.00 70 1015.0
20260509142503 85 166 2.0 7.0 0.00 0.00 0.00 67 1014.9
20260509142001 85 175 3.0 6.0 0.00 0.00 0.00 72 1014.8
20260509141508 84 198 1.0 6.0 0.00 0.00 0.00 72 1015.0
20260509141005 83 146 2.0 6.0 0.00 0.00 0.00 73 1015.0
20260509140503 83 118 1.0 5.0 0.00 0.00 0.00 75 1015.1
20260509140007 82 128 0.0 2.0 0.00 0.00 0.00 75 1015.1
20260509135507 82 290 0.0 5.0 0.00 0.00 0.00 74 1015.2
20260509135004 81 72 1.0 5.0 0.00 0.00 0.00 78 1015.2
20260509134504 81 65 1.0 4.0 0.00 0.00 0.00 79 1015.2
20260509134004 80 201 1.0 4.0 0.00 0.00 0.00 79 1015.2
20260509133510 80 67 1.0 4.0 0.00 0.00 0.00 81 1015.2
20260509133022 79 63 0.0 4.0 0.00 0.00 0.00 80 1015.1
20260509132503 79 54 0.0 3.0 0.00 0.00 0.00 83 1015.0
20260509132002 79 157 0.0 3.0 0.00 0.00 0.00 83 1015.0
20260509131003 78 9 1.0 4.0 0.00 0.00 0.00 83 1015.0
20260509130504 77 55 1.0 3.0 0.00 0.00 0.00 88 1015.0
20260509130006 76 98 1.0 3.0 0.00 0.00 0.00 88 1015.0
20260509125504 76 13 0.0 2.0 0.00 0.00 0.00 90 1015.0
20260509125006 75 64 0.0 0.0 0.00 0.00 0.00 91 1015.0
20260509124512 74 188 0.0 0.0 0.00 0.00 0.00 93 1015.0
20260509124004 74 192 0.0 0.0 0.00 0.00 0.00 93 1014.9
20260509123507 74 190 0.0 0.0 0.00 0.00 0.00 94 1014.9
20260509123008 74 190 0.0 0.0 0.00 0.00 0.00 95 1014.8
20260509122505 74 190 0.0 1.0 0.00 0.00 0.00 96 1014.9
20260509122007 73 189 0.0 1.0 0.00 0.00 0.00 96 1014.9
20260509121003 73 189 0.0 2.0 0.00 0.00 0.00 96 1014.5
20260509120503 72 189 0.0 2.0 0.00 0.00 0.00 96 1014.5
20260509120006 72 189 0.0 3.0 0.00 0.00 0.00 96 1014.3
20260509115503 72 189 0.0 3.0 0.00 0.00 0.00 96 1014.4
20260509115004 72 190 0.0 4.0 0.00 0.00 0.00 96 1014.5
20260509114508 72 189 2.0 4.0 0.00 0.00 0.00 96 1014.3
20260509114004 71 182 0.0 2.0 0.00 0.00 0.00 96 1014.3
20260509113504 71 183 0.0 2.0 0.00 0.00 0.00 96 1014.2
20260509113016 70 182 0.0 2.0 0.00 0.00 0.00 96 1014.0
20260509112507 70 183 0.0 2.0 0.00 0.00 0.00 95 1013.9
20260509112004 70 207 0.0 0.0 0.00 0.00 0.00 95 1013.9
20260509111513 69 207 0.0 0.0 0.00 0.00 0.00 95 1013.8
20260509111006 69 207 0.0 0.0 0.00 0.00 0.00 95 1013.8
20260509110500 69 185 0.0 0.0 0.00 0.00 0.00 94 1013.7
20260509110019 69 185 0.0 0.0 0.00 0.00 0.00 94 1013.7
20260509105503 69 185 0.0 0.0 0.00 0.00 0.00 94 1013.6
20260509105003 69 185 0.0 0.0 0.00 0.00 0.00 94 1013.7
20260509104508 69 185 0.0 0.0 0.00 0.00 0.00 94 1013.5
20260509104006 70 185 0.0 0.0 0.00 0.00 0.00 94 1013.4
20260509103502 70 185 0.0 0.0 0.00 0.00 0.00 94 1013.4
20260509103017 70 185 0.0 0.0 0.00 0.00 0.00 94 1013.4
20260509102505 70 185 0.0 0.0 0.00 0.00 0.00 94 1013.4
20260509102008 70 185 0.0 0.0 0.00 0.00 0.00 94 1013.4
20260509101520 70 185 0.0 0.0 0.00 0.00 0.00 94 1013.4
20260509101004 70 185 0.0 0.0 0.00 0.00 0.00 93 1013.4
20260509100503 70 185 0.0 2.0 0.00 0.00 0.00 94 1013.5
20260509100023 70 185 0.0 2.0 0.00 0.00 0.00 93 1013.7
20260509095507 70 185 1.0 2.0 0.00 0.00 0.00 93 1013.6
20260509095010 70 281 0.0 0.0 0.00 0.00 0.00 93 1013.5
20260509094521 70 281 0.0 0.0 0.00 0.00 0.00 93 1013.3
20260509094003 70 281 0.0 0.0 0.00 0.00 0.00 93 1013.5
20260509093504 70 281 0.0 0.0 0.00 0.00 0.00 93 1013.7
20260509093013 71 281 0.0 0.0 0.00 0.00 0.00 93 1013.5
20260509092507 71 281 0.0 0.0 0.00 0.00 0.00 93 1013.6
20260509092007 71 281 0.0 0.0 0.00 0.00 0.00 93 1013.6
20260509091512 71 281 0.0 3.0 0.00 0.00 0.00 94 1013.4
20260509091007 71 281 0.0 4.0 0.00 0.00 0.00 94 1013.6
20260509090507 71 287 2.0 4.0 0.00 0.00 0.00 93 1013.6
20260509090010 70 292 0.0 1.0 0.00 0.00 0.00 92 1013.8
20260509085503 71 291 0.0 0.0 0.00 0.00 0.00 91 1013.7
20260509085006 71 291 0.0 0.0 0.00 0.00 0.00 92 1013.7
20260509084533 71 291 0.0 0.0 0.00 0.00 0.00 92 1013.8
20260509084005 71 291 0.0 0.0 0.00 0.00 0.00 91 1013.7
20260509083033 71 291 0.0 0.0 0.00 0.00 0.00 91 1013.8
20260509082509 72 291 0.0 0.0 0.00 0.00 0.00 91 1013.8
20260509082006 72 291 0.0 0.0 0.00 0.00 0.00 91 1013.9
20260509081516 72 291 0.0 0.0 0.00 0.00 0.00 91 1013.9
20260509081008 72 291 0.0 0.0 0.00 0.00 0.00 90 1013.9
20260509080504 72 291 0.0 0.0 0.00 0.00 0.00 90 1013.9
20260509080032 72 291 0.0 0.0 0.00 0.00 0.00 90 1014.0
20260509075509 72 291 0.0 0.0 0.00 0.00 0.00 90 1014.1
20260509075007 73 291 0.0 0.0 0.00 0.00 0.00 90 1014.1
20260509074516 73 291 0.0 0.0 0.00 0.00 0.00 89 1014.1
20260509074007 73 291 0.0 0.0 0.00 0.00 0.00 90 1014.1
20260509073507 73 291 0.0 0.0 0.00 0.00 0.00 89 1014.1
20260509072508 74 292 0.0 0.0 0.00 0.00 0.00 88 1014.2
20260509072010 74 292 0.0 0.0 0.00 0.00 0.00 88 1014.1
20260509071513 74 292 0.0 2.0 0.00 0.00 0.00 88 1014.2
20260509071003 74 292 0.0 2.0 0.00 0.00 0.00 88 1014.2
20260509070504 74 292 0.0 2.0 0.00 0.00 0.00 88 1014.3
20260509070020 75 290 0.0 3.0 0.00 0.00 0.00 88 1014.3
20260509065505 75 290 0.0 4.0 0.00 0.00 0.00 87 1014.3
20260509065007 75 286 1.0 4.0 0.00 0.00 0.00 87 1014.4
20260509064525 75 305 0.0 3.0 0.00 0.00 0.00 87 1014.5
20260509064008 75 305 0.0 3.0 0.00 0.00 0.00 87 1014.5
20260509063506 75 315 0.0 5.0 0.00 0.00 0.00 87 1014.5
20260509063020 75 314 0.0 5.0 0.00 0.00 0.00 87 1014.5
20260509062511 75 305 1.0 4.0 0.00 0.00 0.00 87 1014.5
20260509062009 75 314 1.0 4.0 0.00 0.00 0.00 86 1014.6
20260509061522 76 330 1.0 6.0 0.00 0.00 0.00 86 1014.7
20260509061007 76 323 2.0 6.0 0.00 0.00 0.00 86 1014.5
20260509060508 76 325 2.0 5.0 0.00 0.00 0.00 86 1014.7
20260509060013 76 317 1.0 5.0 0.00 0.00 0.00 86 1014.8
20260509055507 76 306 2.0 5.0 0.00 0.00 0.00 86 1014.9
20260509055007 76 321 1.0 5.0 0.00 0.00 0.00 85 1014.9
20260509054520 76 312 1.0 5.0 0.00 0.00 0.00 85 1014.9
20260509054005 76 298 0.0 4.0 0.00 0.00 0.00 85 1015.0
20260509053507 76 312 0.0 3.0 0.00 0.00 0.00 85 1015.1
20260509053030 76 296 0.0 4.0 0.00 0.00 0.00 85 1015.2